Retour au catalogue

DIANJIAN-1

ActifScienceSSO
NORAD 69098·PAYLOAD·🇨🇳 China
Ce nom de satellite n'a pas encore été confirmé par des sources officielles.

Lancé May 15, 2026 depuis Jiuquan Satellite Launch Center

Loading…

Prochains Passages (prochaines 24 heures)

TLE

FraisSource: Space-Track

Époque: Sep 14, 2026, 13:29 UTC

1 69098U 26106B   26257.56193611  .00003363  00000-0  20924-3 0  9996
2 69098  97.5028 337.7742 0013873 209.5162 150.5286 15.10215037 18466

Suivez DIANJIAN-1 en temps réel avec AllMySat

Download on the App Store